Maun, Botswana

7:12 PM CAT on September 26, 2016 (GMT +0200)
Maun

Weather History for 68032 - August, 2013

Change the Weather History Date:

Friday, August 2, 2013

  Actual Average Record
Temperature  
Mean Temperature 62 °F -  
Max Temperature 75 °F - - ()
Min Temperature 49 °F - - ()
Degree Days  
Heating Degree Days 3    
Growing Degree Days 12 (Base 50)    
Moisture  
Dew Point 40 °F    
Average Humidity 44    
Maximum Humidity 82    
Minimum Humidity 15    
Precipitation  
Precipitation 0.00 in - - ()
Sea Level Pressure  
Sea Level Pressure 30.33 in    
Wind  
Wind Speed 7 mph ()    
Max Wind Speed 16 mph    
Max Gust Speed -    
Visibility 6.1 miles    
Events      
T = Trace of Precipitation, MM = Missing Value Source: Averaged Metar Reports

Daily Weather History Graph

Daily Weather History Graph

Search for Another Location

Airport or City:

Trip Planner

Search our weather history database for the weather conditions in past years. The results will help you decide how hot, cold, wet, or windy it might be!

Date:

Astronomy

Aug. 02, 2013 Rise Set
Actual Time 6:55 AM CAT 6:09 PM CAT
Civil Twilight 6:32 AM CAT 6:32 PM CAT
Nautical Twilight 6:05 AM CAT 6:59 PM CAT
Astronomical Twilight 5:39 AM CAT 7:25 PM CAT
Moon 3:16 AM CAT (8/2) 2:36 PM CAT (8/2)
Length of Visible Light 12h 00m
Length of Day
11h 14m
Waning Crescent, 17% of the Moon is Illuminated
Aug 2
Waning Crescent
Aug 6
New
Aug 14
First Quarter
Aug 21
Full
Aug 28
Last Quarter

Hourly Weather History & Observations

Time (CAT) Temp. Dew Point Humidity Pressure Visibility Wind Dir Wind Speed Gust Speed Precip Events Conditions
12:00 AM 57.2 °F 37.4 °F 48% 30.36 in - ESE 9.2 mph - N/A   Clear
2:00 AM 56 °F 44 °F 55%  in 6 mi ESE 9.2 mph - -   Partly Cloudy
3:00 AM 55.4 °F 44.6 °F 67% 30.33 in - ESE 10.4 mph - N/A   Clear
4:00 AM 53.6 °F 44.6 °F 72% 30.33 in - SE 6.9 mph - N/A   Clear
6:00 AM 51.8 °F 44.6 °F 76% 30.36 in - SSE 5.8 mph - N/A   Clear
7:00 AM 50.0 °F 44.6 °F 82% 30.36 in - South 4.6 mph - N/A   Clear
8:00 AM 51 °F 44 °F 71%  in 6 mi SSE 6.9 mph - -   Partly Cloudy
8:00 AM 51.8 °F 44.6 °F 76% 30.39 in - SSE 6.9 mph - N/A   Clear
9:00 AM 57.2 °F 44.6 °F 63% 30.42 in - East 8.1 mph - N/A   Clear
10:00 AM 62.6 °F 42.8 °F 48% 30.42 in - East 16.1 mph - N/A   Clear
11:00 AM 66.2 °F 42.8 °F 43% 30.39 in - ENE 13.8 mph - N/A   Clear
12:00 PM 69.8 °F 41.0 °F 35% 30.36 in - East 13.8 mph - N/A   Clear
1:00 PM 73.4 °F 39.2 °F 29% 30.33 in 6.2 mi South 12.7 mph - N/A   Partly Cloudy
2:00 PM 72 °F 34 °F 15%  in 6 mi SE 5.8 mph - -   Partly Cloudy
2:00 PM 71.6 °F 33.8 °F 25% 30.30 in 6.2 mi SE 5.8 mph - N/A   Scattered Clouds
3:00 PM 75.2 °F 32.0 °F 21% 30.27 in 6.2 mi East 5.8 mph - N/A   Mostly Cloudy
4:00 PM 73.4 °F 33.8 °F 23% 30.27 in 6.2 mi NE 8.1 mph - N/A   Mostly Cloudy
5:00 PM 73.4 °F 35.6 °F 25% 30.24 in 6.2 mi ENE 9.2 mph - N/A   Scattered Clouds
6:00 PM 71.6 °F 37.4 °F 29% 30.27 in 6.2 mi ESE 5.8 mph - N/A   Scattered Clouds
7:00 PM 69.8 °F 37.4 °F 31% 30.27 in 6.2 mi SE 5.8 mph - N/A   Scattered Clouds
8:00 PM 68 °F 37 °F 21%  in 6 mi SE 5.8 mph - -   Partly Cloudy
8:00 PM 68.0 °F 37.4 °F 33% 30.30 in 6.2 mi SE 5.8 mph - N/A   Scattered Clouds
9:00 PM 68.0 °F 37.4 °F 33% 30.30 in 6.2 mi SE 6.9 mph - N/A   Mostly Cloudy
10:00 PM 68.0 °F 37.4 °F 33% 30.30 in 6.2 mi ESE 9.2 mph - N/A   Mostly Cloudy
11:00 PM 66.2 °F 37.4 °F 35% 30.33 in 6.2 mi SE 8.1 mph - N/A   Scattered Clouds